FW9465 Weather Reports


time (UTC)temp
F
wind
direction
speed
knots
gust
knots
rain 1hr
in
rain 24hr
in
rain mn
in
humidity
%
barometer
mb
20260506135431 52 339 7.0 11.3 0.00 0.00 0.00 83 1014.5
20260506134433 52 313 8.7 12.2 0.00 0.00 0.00 83 1014.9
20260506133432 52 13 10.4 14.8 0.00 0.00 0.00 82 1014.0
20260506131449 52 359 7.0 8.7 0.00 0.00 0.00 81 1013.6
20260506130531 52 1 6.1 10.4 0.00 0.00 0.00 81 1013.7
20260506125533 53 12 8.7 13.9 0.00 0.00 0.00 80 1013.0
20260506124535 53 353 7.8 12.2 0.00 0.00 0.00 78 1012.8
20260506123531 53 342 9.6 14.8 0.00 0.00 0.00 78 1012.8
20260506121631 54 345 6.1 10.4 0.00 0.00 0.00 76 1012.9
20260506120632 54 352 7.8 10.4 0.00 0.00 0.00 76 1012.4
20260506115631 55 359 9.6 13.0 0.00 0.00 0.00 77 1012.4
20260506113633 55 355 7.8 10.4 0.00 0.00 0.00 76 1012.2
20260506112731 55 354 7.8 12.2 0.00 0.00 0.00 75 1012.2
20260506110831 56 356 6.1 11.3 0.00 0.00 0.00 75 1011.9
20260506105830 56 358 6.1 7.8 0.00 0.00 0.00 75 1011.5
20260506104832 56 346 6.1 10.4 0.00 0.00 0.00 75 1011.6
20260506103830 56 341 6.1 9.6 0.00 0.00 0.00 75 1011.3
20260506102832 56 352 4.3 8.7 0.00 0.00 0.00 77 1011.2
20260506101831 56 328 9.6 11.3 0.00 0.00 0.00 77 1011.2
20260506095931 56 4 5.2 7.8 0.00 0.00 0.00 75 1010.7
20260506094031 57 347 4.3 6.1 0.00 0.00 0.00 76 1010.5
20260506093034 57 342 5.2 7.8 0.00 0.00 0.00 77 1010.6
20260506092030 57 344 4.3 7.8 0.00 0.00 0.00 77 1010.4
20260506091033 57 348 7.8 9.6 0.00 0.00 0.00 78 1010.3
20260506090034 57 340 5.2 7.0 0.00 0.00 0.00 77 1010.5
20260506085047 57 334 6.1 8.7 0.00 0.00 0.00 78 1010.4
20260506084129 57 2 5.2 7.0 0.00 0.00 0.00 78 1010.3
20260506083132 57 357 7.8 10.4 0.00 0.00 0.00 79 1010.2
20260506082147 58 351 7.8 10.4 0.00 0.00 0.00 78 1010.0
20260506081231 58 341 7.0 10.4 0.00 0.00 0.00 79 1010.0
20260506080231 58 345 7.0 9.6 0.00 0.00 0.00 78 1010.0
20260506072247 59 7 4.3 6.1 0.00 0.00 0.00 80 1009.8
20260506071232 59 19 8.7 12.2 0.00 0.00 0.00 80 1009.6
20260506070330 59 28 6.1 7.8 0.00 0.00 0.00 80 1009.6
20260506062431 60 12 8.7 11.3 0.00 0.00 0.00 79 1009.7
20260506061432 60 12 6.1 8.7 0.00 0.00 0.00 78 1009.6
20260506060431 60 11 9.6 12.2 0.00 0.00 0.00 78 1009.5
20260506050432 62 2 7.0 10.4 0.00 0.00 0.00 76 1009.8
20260506044536 64 15 6.1 8.7 0.00 0.00 0.00 76 1009.7
20260506043534 64 357 9.6 13.0 0.00 0.00 0.00 74 1009.2
20260506042534 64 3 5.2 8.7 0.00 0.00 0.00 74 1009.2
20260506041536 65 17 8.7 13.0 0.00 0.00 0.00 74 1009.6
20260506040533 65 12 7.8 10.4 0.00 0.00 0.00 72 1009.6
20260506034535 66 332 8.7 12.2 0.00 0.00 0.00 73 1009.2
20260506033634 66 355 8.7 12.2 0.00 0.00 0.00 71 1008.7
20260506032634 66 347 7.8 12.2 0.00 0.00 0.00 71 1008.7
20260506030650 67 3 8.7 12.2 0.00 0.00 0.00 71 1008.2
20260506025635 67 25 8.7 12.2 0.00 0.00 0.00 70 1007.9
20260506023733 67 10 10.4 14.8 0.00 0.00 0.00 69 1007.8
20260506022733 68 20 7.8 10.4 0.00 0.00 0.00 70 1007.5
20260506021735 69 348 8.7 11.3 0.00 0.00 0.00 70 1007.4
20260506020832 69 330 7.0 10.4 0.00 0.00 0.00 70 1007.3
20260506015833 69 1 7.8 13.9 0.00 0.00 0.00 69 1007.0
20260506014834 70 348 8.7 13.9 0.00 0.00 0.00 68 1006.8
20260506012835 71 331 7.0 10.4 0.00 0.00 0.00 68 1006.2
20260506003949 73 343 7.8 12.2 0.00 0.00 0.00 64 1005.5
20260506003048 74 5 7.8 9.6 0.00 0.00 0.00 62 1005.4
20260506002133 74 341 6.1 7.8 0.00 0.00 0.00 62 1005.2
20260506002034 74 354 6.1 8.7 0.00 0.00 0.00 62 1005.3
20260506001033 75 3 7.8 9.6 0.00 0.00 0.00 61 1005.0
20260506000133 75 332 7.0 11.3 0.00 0.00 0.00 61 1005.0
20260505235135 76 342 9.6 11.3 0.00 0.00 0.00 60 1005.0
20260505234134 77 356 7.8 13.0 0.00 0.00 0.00 60 1004.8
20260505232134 79 340 9.6 15.6 0.00 0.00 0.00 59 1004.2
20260505231135 80 323 9.6 14.8 0.00 0.00 0.00 60 1004.1
20260505230151 82 344 9.6 13.9 0.00 0.00 0.00 56 1004.3
20260505225233 83 344 7.0 11.3 0.00 0.00 0.00 53 1004.1
20260505223234 84 351 5.2 8.7 0.00 0.00 0.00 48 1003.7
20260505222235 85 339 7.8 12.2 0.00 0.00 0.00 45 1003.7
20260505221333 87 350 8.7 11.3 0.00 0.00 0.00 44 1003.6
20260505220333 91 333 8.7 12.2 0.00 0.00 0.00 43 1003.6
20260505215333 91 282 2.6 3.5 0.00 0.00 0.00 44 1003.3
20260505214334 90 282 0.0 1.7 0.00 0.00 0.00 45 1003.5
20260505213333 90 292 3.5 5.2 0.00 0.00 0.00 43 1003.6
20260505212347 89 294 4.3 7.0 0.00 0.00 0.00 44 1003.5
20260505211434 89 269 7.0 11.3 0.00 0.00 0.00 43 1003.5
20260505210532 89 282 2.6 5.2 0.00 0.00 0.00 43 1003.7
20260505205534 90 256 7.8 9.6 0.00 0.00 0.00 43 1003.9
20260505204633 89 281 3.5 6.1 0.00 0.00 0.00 43 1004.0
20260505203634 89 255 7.8 12.2 0.00 0.00 0.00 42 1004.2
20260505202633 89 260 4.3 7.8 0.00 0.00 0.00 43 1004.1
20260505201634 89 250 5.2 11.3 0.00 0.00 0.00 47 1004.1
20260505195733 89 223 8.7 13.0 0.00 0.00 0.00 49 1004.1
20260505193731 88 210 5.2 10.4 0.00 0.00 0.00 51 1004.5
20260505190832 87 226 7.0 12.2 0.00 0.00 0.00 53 1004.5
20260505185832 87 223 6.1 14.8 0.00 0.00 0.00 55 1004.5
20260505184834 86 225 7.0 13.0 0.00 0.00 0.00 56 1004.4
20260505182932 85 230 5.2 9.6 0.00 0.00 0.00 58 1004.7
20260505180034 84 231 9.6 13.0 0.00 0.00 0.00 61 1004.7
20260505175033 83 191 6.1 9.6 0.00 0.00 0.00 62 1004.7
20260505174131 84 215 9.6 15.6 0.00 0.00 0.00 61 1004.8
20260505173132 83 197 3.5 9.6 0.00 0.00 0.00 64 1005.0
20260505172133 82 192 3.5 8.7 0.00 0.00 0.00 67 1005.0
20260505171133 81 202 3.5 9.6 0.00 0.00 0.00 66 1005.0
20260505170133 81 209 7.0 13.0 0.00 0.00 0.00 65 1004.9
20260505164150 80 201 7.0 15.6 0.00 0.00 0.00 67 1004.8
20260505162231 79 202 6.1 13.9 0.00 0.00 0.00 70 1004.6
20260505160331 78 207 7.0 11.3 0.00 0.00 0.00 71 1004.3
20260505152449 75 207 6.1 16.5 0.00 0.00 0.00 76 1004.5
20260505150532 75 202 11.3 19.1 0.00 0.00 0.00 77 1004.4
20260505140634 72 209 5.2 10.4 0.00 0.00 0.00 82 1004.5